CW4517 Weather Reports


Display with metric or nautical units.
time (UTC)temp
F
wind
direction
speed
MPH
gust
MPH
rain 1hr
in
rain 24hr
in
rain mn
in
humidity
%
barometer
mb
20260903065537 78 199 0.0 0.0 0.00 0.00 0.00 87 1010.3
20260903065032 78 219 0.0 0.0 0.00 0.00 0.00 87 1010.3
20260903064524 78 238 0.0 0.0 0.00 0.00 0.00 87 1010.3
20260903064019 78 228 0.0 0.0 0.00 0.00 0.00 87 1010.3
20260903063513 78 207 0.0 0.0 0.00 0.00 0.00 87 1010.3
20260903063229 78 153 0.0 0.0 0.00 0.00 0.00 87 1010.3
20260903062716 78 236 0.0 0.0 0.00 0.00 0.00 87 1010.3
20260903061942 78 214 0.0 0.0 0.00 0.00 0.00 87 1010.3
20260903061430 78 213 0.0 1.0 0.00 0.00 0.00 87 1010.5
20260903060923 78 212 0.0 2.0 0.00 0.00 0.00 87 1010.5
20260903060423 78 219 1.0 2.0 0.00 0.00 0.00 87 1010.5
20260903055923 78 227 1.0 4.0 0.00 0.00 0.00 87 1010.4
20260903055644 78 227 2.0 4.0 0.00 0.00 0.00 87 1010.4
20260903054926 78 238 2.0 5.0 0.00 0.00 0.00 87 1010.4
20260903054423 78 236 2.0 5.0 0.00 0.00 0.00 86 1010.4
20260903053923 78 238 2.0 4.0 0.00 0.00 0.00 87 1010.4
20260903053421 78 228 2.0 4.0 0.00 0.00 0.00 86 1010.4
20260903052920 78 217 2.0 4.0 0.00 0.00 0.00 86 1010.3
20260903052419 78 225 2.0 4.0 0.00 0.00 0.00 86 1010.3
20260903051913 78 223 2.0 4.0 0.00 0.00 0.00 86 1010.3
20260903051409 78 226 2.0 4.0 0.00 0.00 0.00 86 1010.2
20260903050903 78 226 1.0 4.0 0.00 0.00 0.00 86 1010.2
20260903050352 79 213 1.0 3.0 0.00 0.00 0.00 86 1010.2
20260903045850 79 212 0.0 3.0 0.00 0.00 0.00 86 1010.2
20260903045339 79 217 0.0 0.0 0.00 0.00 0.00 86 1010.2
20260903044825 79 204 1.0 3.0 0.00 0.00 0.00 86 1010.2
20260903044313 79 218 2.0 5.0 0.00 0.00 0.00 86 1010.2
20260903043803 79 199 2.0 5.0 0.00 0.00 0.00 86 1010.2
20260903043251 79 159 1.0 3.0 0.00 0.00 0.00 85 1010.2
20260903042737 79 209 2.0 6.0 0.00 0.00 0.00 85 1010.2
20260903042228 79 218 1.0 6.0 0.00 0.00 0.00 85 1010.2
20260903041720 79 195 1.0 4.0 0.00 0.00 0.00 85 1010.2
20260903041213 80 221 2.0 4.0 0.00 0.00 0.00 85 1010.2
20260903040704 80 223 2.0 4.0 0.00 0.00 0.00 85 1010.2
20260903040201 80 187 2.0 5.0 0.00 0.00 0.00 85 1010.2
20260903035656 80 221 1.0 4.0 0.00 0.00 0.00 85 1010.2
20260903035410 80 173 1.0 4.0 0.00 0.00 0.00 85 1010.2
20260903034643 80 231 1.0 4.0 0.00 0.00 0.00 85 1010.2
20260903034137 80 219 2.0 4.0 0.00 0.00 0.00 85 1010.1
20260903033633 80 222 2.0 4.0 0.00 0.00 0.00 85 1010.1
20260903033122 80 225 2.0 4.0 0.00 0.00 0.00 85 1010.1
20260903032620 80 219 1.0 4.0 0.00 0.00 0.00 85 1010.2
20260903032115 80 198 1.0 4.0 0.00 0.00 0.00 85 1010.2
20260903031609 80 220 2.0 5.0 0.00 0.00 0.00 85 1010.2
20260903031103 81 215 2.0 5.0 0.00 0.00 0.00 85 1010.1
20260903030551 81 217 2.0 4.0 0.00 0.00 0.00 85 1010.1
20260903030049 81 232 2.0 4.0 0.00 0.00 0.00 84 1010.1
20260903025544 81 223 1.0 3.0 0.00 0.00 0.00 84 1010.2
20260903025037 81 218 1.0 3.0 0.00 0.00 0.00 84 1010.2
20260903024531 81 200 2.0 4.0 0.00 0.00 0.00 84 1010.2
20260903024021 81 213 2.0 5.0 0.00 0.00 0.00 84 1010.2
20260903023519 82 218 3.0 5.0 0.00 0.00 0.00 83 1010.2
20260903023014 82 227 2.0 5.0 0.00 0.00 0.00 83 1010.2
20260903022507 82 232 2.0 5.0 0.00 0.00 0.00 83 1010.0
20260903022228 82 192 2.0 4.0 0.00 0.00 0.00 82 1010.0
20260903021455 82 217 2.0 3.0 0.00 0.00 0.00 82 1010.1
20260903020951 82 190 2.0 5.0 0.00 0.00 0.00 82 1010.1
20260903020444 82 207 2.0 5.0 0.00 0.00 0.00 82 1010.1
20260903015938 82 167 2.0 4.0 0.00 0.00 0.00 82 1010.0
20260903015432 83 181 1.0 4.0 0.00 0.00 0.00 82 1010.0
20260903014926 83 233 1.0 3.0 0.00 0.00 0.00 81 1010.0
20260903014419 83 188 1.0 4.0 0.00 0.00 0.00 81 1010.0
20260903013909 83 184 1.0 4.0 0.00 0.00 0.00 81 1010.0
20260903013407 83 194 1.0 3.0 0.00 0.00 0.00 81 1010.0
20260903013128 84 219 1.0 3.0 0.00 0.00 0.00 81 1009.7
20260903012354 84 229 1.0 6.0 0.00 0.00 0.00 80 1009.7
20260903011850 84 229 2.0 6.0 0.00 0.00 0.00 80 1009.7
20260903011342 84 214 2.0 5.0 0.00 0.00 0.00 79 1009.6
20260903010837 84 204 2.0 5.0 0.00 0.00 0.00 79 1009.6
20260903010329 85 211 2.0 5.0 0.00 0.00 0.00 79 1009.6
20260903005822 85 176 2.0 6.0 0.00 0.00 0.00 79 1009.5
20260903005322 85 248 2.0 6.0 0.00 0.00 0.00 78 1009.5
20260903004822 85 232 1.0 4.0 0.00 0.00 0.00 78 1009.5
20260903004322 85 169 1.0 4.0 0.00 0.00 0.00 78 1009.5
20260903003822 86 217 2.0 6.0 0.00 0.00 0.00 78 1009.5
20260903003323 86 239 3.0 6.0 0.00 0.00 0.00 77 1009.5
20260903002825 86 192 2.0 6.0 0.00 0.00 0.00 77 1009.5
20260903002320 87 194 2.0 6.0 0.00 0.00 0.00 76 1009.5
20260903001822 87 189 2.0 5.0 0.00 0.00 0.00 76 1009.5
20260903001317 87 230 2.0 5.0 0.00 0.00 0.00 76 1009.5
20260903001030 87 203 2.0 5.0 0.00 0.00 0.00 75 1009.5
20260903000304 88 184 2.0 7.0 0.00 0.00 0.00 75 1009.5
20260902235758 88 206 2.0 7.0 0.00 0.00 0.00 75 1009.7
20260902235254 88 207 2.0 5.0 0.00 0.00 0.00 74 1009.7
20260902235226 89 208 2.0 5.0 0.00 0.00 0.00 74 1009.7
20260902234457 89 236 3.0 8.0 0.00 0.00 0.00 74 1009.7
20260902233735 89 216 3.0 8.0 0.00 0.00 0.00 74 1009.7
20260902233710 89 227 2.0 8.0 0.00 0.00 0.00 74 1009.7
20260902232722 89 210 3.0 6.0 0.00 0.00 0.00 74 1009.8
20260902232704 90 196 3.0 7.0 0.00 0.00 0.00 73 1009.8
20260902231705 90 218 3.0 7.0 0.00 0.00 0.00 73 1009.8
20260902231206 90 222 3.0 8.0 0.00 0.00 0.00 72 1009.7
20260902230700 91 215 3.0 9.0 0.00 0.00 0.00 72 1009.7
20260902230153 91 215 3.0 9.0 0.00 0.00 0.00 71 1009.7
20260902225644 91 214 4.0 9.0 0.00 0.00 0.00 71 1009.7
20260902225141 91 225 3.0 9.0 0.00 0.00 0.00 70 1009.7
20260902224634 91 148 4.0 9.0 0.00 0.00 0.00 70 1009.7
20260902224347 92 171 4.0 7.0 0.00 0.00 0.00 69 1009.8
20260902224110 92 209 4.0 8.0 0.00 0.00 0.00 70 1009.8
20260902223116 92 132 4.0 10.0 0.00 0.00 0.00 69 1009.8
20260902222610 92 200 4.0 10.0 0.00 0.00 0.00 68 1009.8
20260902222104 92 227 4.0 8.0 0.00 0.00 0.00 68 1009.8
20260902221605 92 232 4.0 8.0 0.00 0.00 0.00 68 1009.8
20260902221324 92 218 3.0 9.0 0.00 0.00 0.00 67 1009.8
20260902220604 92 224 3.0 9.0 0.00 0.00 0.00 68 1009.8
20260902220104 92 204 4.0 9.0 0.00 0.00 0.00 68 1009.8
20260902215604 92 238 4.0 11.0 0.00 0.00 0.00 66 1010.0
20260902215326 92 200 5.0 11.0 0.00 0.00 0.00 66 1010.0
20260902215044 93 233 5.0 11.0 0.00 0.00 0.00 65 1010.0
20260902214104 93 201 4.0 11.0 0.00 0.00 0.00 64 1010.1
20260902213603 93 232 4.0 12.0 0.00 0.00 0.00 65 1010.1
20260902213548 94 146 6.0 14.0 0.00 0.00 0.00 64 1010.1
20260902212603 93 236 7.0 14.0 0.00 0.00 0.00 63 1010.1
20260902212101 94 239 6.0 11.0 0.00 0.00 0.00 63 1010.1
20260902211602 94 221 5.0 10.0 0.00 0.00 0.00 64 1010.1
20260902211102 94 235 5.0 10.0 0.00 0.00 0.00 63 1010.1
20260902210602 93 226 6.0 11.0 0.00 0.00 0.00 64 1010.1
20260902210324 93 244 6.0 13.0 0.00 0.00 0.00 63 1010.1
20260902205558 94 211 5.0 13.0 0.00 0.00 0.00 63 1010.2
20260902205046 94 257 5.0 11.0 0.00 0.00 0.00 64 1010.2
20260902204546 94 197 4.0 11.0 0.00 0.00 0.00 63 1010.2
20260902204046 94 221 4.0 11.0 0.00 0.00 0.00 62 1010.2
20260902203546 94 227 5.0 14.0 0.00 0.00 0.00 60 1010.2
20260902203310 94 202 6.0 14.0 0.00 0.00 0.00 61 1010.2
20260902202545 94 209 5.0 14.0 0.00 0.00 0.00 62 1010.2
20260902202045 94 254 4.0 10.0 0.00 0.00 0.00 61 1010.2
20260902201812 94 157 4.0 9.0 0.00 0.00 0.00 64 1010.2
20260902201351 94 225 5.0 10.0 0.00 0.00 0.00 64 1010.4
20260902200035 94 225 5.0 13.0 0.00 0.00 0.00 61 1010.4
20260902195530 94 246 4.0 10.0 0.00 0.00 0.00 60 1010.5
20260902195023 94 161 4.0 11.0 0.00 0.00 0.00 63 1010.5
20260902194518 93 213 5.0 11.0 0.00 0.00 0.00 63 1010.5
20260902194011 93 218 4.0 10.0 0.00 0.00 0.00 63 1010.7
20260902193506 93 216 4.0 10.0 0.00 0.00 0.00 65 1010.7
20260902192955 94 212 4.0 10.0 0.00 0.00 0.00 62 1010.7
20260902192452 93 210 4.0 10.0 0.00 0.00 0.00 64 1010.8
20260902191946 93 235 5.0 10.0 0.00 0.00 0.00 62 1010.8
20260902191440 93 217 5.0 10.0 0.00 0.00 0.00 60 1011.0
20260902190934 93 273 5.0 10.0 0.00 0.00 0.00 60 1011.0
20260902190423 92 258 5.0 11.0 0.00 0.00 0.00 60 1011.0
20260902190146 92 226 5.0 11.0 0.00 0.00 0.00 61 1011.0
20260902185417 92 236 4.0 11.0 0.00 0.00 0.00 63 1011.0
20260902184909 92 237 3.0 8.0 0.00 0.00 0.00 64 1011.0
20260902184404 92 196 4.0 10.0 0.00 0.00 0.00 63 1011.1
20260902183858 91 199 4.0 10.0 0.00 0.00 0.00 63 1011.1
20260902183352 91 325 5.0 10.0 0.00 0.00 0.00 65 1011.1
20260902182841 91 202 5.0 10.0 0.00 0.00 0.00 66 1011.2
20260902182825 91 225 5.0 9.0 0.00 0.00 0.00 66 1011.2
20260902182057 91 248 4.0 10.0 0.00 0.00 0.00 66 1011.2
20260902181329 91 151 4.0 10.0 0.00 0.00 0.00 66 1011.2
20260902180822 91 197 4.0 8.0 0.00 0.00 0.00 67 1011.2
20260902180311 91 217 5.0 9.0 0.00 0.00 0.00 67 1011.2
20260902175810 90 208 4.0 9.0 0.00 0.00 0.00 66 1011.3
20260902175307 90 200 4.0 9.0 0.00 0.00 0.00 67 1011.3
20260902174757 90 221 4.0 9.0 0.00 0.00 0.00 66 1011.3
20260902174253 90 227 5.0 9.0 0.00 0.00 0.00 65 1011.4
20260902173743 90 229 5.0 9.0 0.00 0.00 0.00 66 1011.4
20260902173241 90 229 4.0 9.0 0.00 0.00 0.00 66 1011.4
20260902172735 90 241 5.0 11.0 0.00 0.00 0.00 66 1011.4
20260902172227 89 229 5.0 11.0 0.00 0.00 0.00 67 1011.4
20260902171726 89 194 4.0 9.0 0.00 0.00 0.00 66 1011.4
20260902171224 89 243 5.0 10.0 0.00 0.00 0.00 66 1011.7
20260902171202 89 250 5.0 10.0 0.00 0.00 0.00 67 1011.7
20260902170442 89 222 4.0 10.0 0.00 0.00 0.00 67 1011.7
20260902165721 89 225 3.0 8.0 0.00 0.00 0.00 68 1011.8
20260902165221 88 230 4.0 9.0 0.00 0.00 0.00 69 1011.8
20260902164722 88 249 4.0 9.0 0.00 0.00 0.00 69 1011.8
20260902164218 88 248 4.0 9.0 0.00 0.00 0.00 69 1011.9
20260902163719 87 248 4.0 10.0 0.00 0.00 0.00 69 1011.9
20260902162719 87 227 4.0 10.0 0.00 0.00 0.00 70 1011.9
20260902162219 87 247 5.0 11.0 0.00 0.00 0.00 70 1011.9
20260902161720 87 242 5.0 11.0 0.00 0.00 0.00 70 1011.9
20260902161214 86 220 5.0 14.0 0.00 0.00 0.00 71 1011.9
20260902160700 86 257 5.0 14.0 0.00 0.00 0.00 71 1011.9
20260902160409 85 329 4.0 9.0 0.00 0.00 0.00 73 1011.9
20260902155638 85 202 4.0 10.0 0.00 0.00 0.00 72 1011.6
20260902155353 85 148 5.0 10.0 0.00 0.00 0.00 73 1011.6
20260902154613 85 236 5.0 8.0 0.00 0.00 0.00 72 1011.6
20260902154544 85 230 5.0 10.0 0.00 0.00 0.00 73 1011.7
20260902153556 84 219 5.0 11.0 0.00 0.00 0.00 73 1011.7
20260902153045 84 235 5.0 11.0 0.00 0.00 0.00 72 1011.7
20260902152801 84 209 5.0 10.0 0.00 0.00 0.00 75 1011.5
20260902152038 83 205 4.0 9.0 0.00 0.00 0.00 74 1011.5
20260902151532 83 235 3.0 7.0 0.00 0.00 0.00 75 1011.5
20260902151248 83 214 4.0 9.0 0.00 0.00 0.00 76 1011.4
20260902150736 82 219 5.0 10.0 0.00 0.00 0.00 76 1011.4
20260902150014 82 221 4.0 10.0 0.00 0.00 0.00 76 1011.4
20260902145510 82 205 4.0 9.0 0.00 0.00 0.00 76 1011.6
20260902145002 82 221 4.0 9.0 0.00 0.00 0.00 76 1011.6
20260902144457 82 229 5.0 12.0 0.00 0.00 0.00 76 1011.6
20260902143950 82 238 6.0 12.0 0.00 0.00 0.00 75 1011.6
20260902143440 82 217 5.0 10.0 0.00 0.00 0.00 76 1011.6
20260902142934 81 253 4.0 11.0 0.00 0.00 0.00 78 1011.7
20260902142432 81 140 5.0 11.0 0.00 0.00 0.00 78 1011.7
20260902141927 81 201 5.0 10.0 0.00 0.00 0.00 77 1011.7
20260902141643 80 211 4.0 8.0 0.00 0.00 0.00 78 1011.9
20260902140916 80 202 4.0 10.0 0.00 0.00 0.00 78 1011.9
20260902140403 80 220 5.0 11.0 0.00 0.00 0.00 78 1011.9
20260902135903 79 205 4.0 11.0 0.00 0.00 0.00 79 1011.9
20260902135357 79 202 3.0 10.0 0.00 0.00 0.00 80 1011.9
20260902135112 78 234 3.0 7.0 0.00 0.00 0.00 80 1011.9
20260902134341 78 209 3.0 7.0 0.00 0.00 0.00 81 1012.0
20260902133839 77 225 3.0 7.0 0.00 0.00 0.00 82 1012.0
20260902133815 77 225 3.0 8.0 0.00 0.00 0.00 82 1012.0
20260902132828 76 215 2.0 8.0 0.00 0.00 0.00 83 1012.0
20260902132320 76 175 2.0 5.0 0.00 0.00 0.00 83 1012.0
20260902131814 76 225 2.0 4.0 0.00 0.00 0.00 83 1012.0
20260902131308 76 220 1.0 4.0 0.00 0.00 0.00 83 1012.1
20260902130802 76 219 1.0 4.0 0.00 0.00 0.00 83 1012.1
20260902130252 76 229 2.0 4.0 0.00 0.00 0.00 83 1012.1
20260902125750 76 213 2.0 5.0 0.00 0.00 0.00 83 1011.9
20260902125245 76 215 1.0 5.0 0.00 0.00 0.00 83 1011.9
20260902124738 76 179 2.0 4.0 0.00 0.00 0.00 83 1011.9
20260902124232 75 220 2.0 5.0 0.00 0.00 0.00 83 1012.0
20260902123728 75 212 1.0 6.0 0.00 0.00 0.00 84 1012.0
20260902123228 75 234 1.0 6.0 0.00 0.00 0.00 84 1012.0
20260902122728 75 178 1.0 4.0 0.00 0.00 0.00 84 1012.0
20260902122225 74 200 2.0 6.0 0.00 0.00 0.00 84 1012.0
20260902121726 74 234 2.0 6.0 0.00 0.00 0.00 84 1012.0
20260902121223 74 198 2.0 4.0 0.00 0.00 0.00 84 1011.9
20260902120723 74 209 1.0 4.0 0.00 0.00 0.00 84 1011.9
20260902120228 74 163 1.0 4.0 0.00 0.00 0.00 84 1011.9
20260902115723 74 224 1.0 4.0 0.00 0.00 0.00 84 1011.9
20260902115448 74 175 1.0 2.0 0.00 0.00 0.00 84 1011.9
20260902114723 74 200 1.0 6.0 0.00 0.00 0.00 84 1011.9
20260902114217 74 221 2.0 6.0 0.00 0.00 0.00 84 1011.9
20260902113705 74 229 2.0 6.0 0.00 0.00 0.00 84 1011.9
20260902113155 74 227 3.0 6.0 0.00 0.00 0.00 84 1011.9
20260902112910 74 225 3.0 6.0 0.00 0.00 0.00 84 1011.9
20260902112138 74 234 2.0 5.0 0.00 0.00 0.00 84 1011.9
20260902111638 74 218 2.0 5.0 0.00 0.00 0.00 84 1011.9
20260902111131 74 208 2.0 5.0 0.00 0.00 0.00 84 1011.8
20260902110626 74 234 1.0 5.0 0.00 0.00 0.00 84 1011.8
20260902110120 74 213 1.0 5.0 0.00 0.00 0.00 84 1011.8
20260902105609 74 215 1.0 2.0 0.00 0.00 0.00 84 1011.8
20260902105328 74 198 1.0 5.0 0.00 0.00 0.00 84 1011.8
20260902104602 74 229 1.0 5.0 0.00 0.00 0.00 84 1011.8
20260902104055 75 182 1.0 5.0 0.00 0.00 0.00 84 1011.8
20260902103549 75 211 1.0 5.0 0.00 0.00 0.00 84 1011.8
20260902103038 75 217 1.0 5.0 0.00 0.00 0.00 84 1011.8
20260902102538 75 203 1.0 5.0 0.00 0.00 0.00 84 1011.9
20260902102033 75 182 1.0 4.0 0.00 0.00 0.00 84 1011.9
20260902101525 75 223 1.0 3.0 0.00 0.00 0.00 84 1011.9
20260902101019 75 197 1.0 3.0 0.00 0.00 0.00 84 1011.8
20260902100513 75 190 1.0 3.0 0.00 0.00 0.00 84 1011.8
20260902100007 75 230 0.0 3.0 0.00 0.00 0.00 84 1011.8
20260902095456 75 190 1.0 3.0 0.00 0.00 0.00 84 1011.6
20260902094955 75 227 0.0 3.0 0.00 0.00 0.00 84 1011.6
20260902094450 75 170 0.0 1.0 0.00 0.00 0.00 84 1011.6
20260902093939 75 196 0.0 0.0 0.00 0.00 0.00 84 1011.6
20260902093438 75 190 0.0 0.0 0.00 0.00 0.00 84 1011.6
20260902092928 75 190 0.0 0.0 0.00 0.00 0.00 84 1011.6
20260902092425 75 183 0.0 1.0 0.00 0.00 0.00 84 1011.6
20260902091920 75 175 0.0 1.0 0.00 0.00 0.00 84 1011.6
20260902091413 75 204 0.0 1.0 0.00 0.00 0.00 84 1011.7
20260902090908 75 219 1.0 3.0 0.00 0.00 0.00 84 1011.7
20260902090400 75 219 1.0 3.0 0.00 0.00 0.00 84 1011.7
20260902085855 75 223 2.0 3.0 0.00 0.00 0.00 84 1011.6
20260902085607 75 225 2.0 3.0 0.00 0.00 0.00 84 1011.6
20260902084844 75 225 2.0 3.0 0.00 0.00 0.00 84 1011.6
20260902084338 76 234 2.0 4.0 0.00 0.00 0.00 83 1011.4
20260902083831 76 227 2.0 4.0 0.00 0.00 0.00 83 1011.4
20260902083326 76 223 2.0 3.0 0.00 0.00 0.00 83 1011.4
20260902082814 76 223 2.0 4.0 0.00 0.00 0.00 83 1011.3
20260902082312 76 232 2.0 4.0 0.00 0.00 0.00 83 1011.3
20260902081801 76 228 2.0 5.0 0.00 0.00 0.00 83 1011.3
20260902081249 76 225 2.0 5.0 0.00 0.00 0.00 83 1011.3
20260902081229 76 229 2.0 5.0 0.00 0.00 0.00 83 1011.3
20260902080238 76 207 2.0 5.0 0.00 0.00 0.00 83 1011.3
20260902075739 76 211 2.0 4.0 0.00 0.00 0.00 83 1011.3
20260902075238 76 218 2.0 4.0 0.00 0.00 0.00 83 1011.3
20260902074739 76 138 2.0 5.0 0.00 0.00 0.00 83 1011.3
20260902074239 76 198 2.0 5.0 0.00 0.00 0.00 83 1011.2
20260902073738 76 200 2.0 5.0 0.00 0.00 0.00 83 1011.2
20260902073239 76 181 2.0 5.0 0.00 0.00 0.00 83 1011.2
20260902072740 76 176 1.0 3.0 0.00 0.00 0.00 84 1011.3
20260902072232 76 209 1.0 3.0 0.00 0.00 0.00 84 1011.3
20260902071728 76 204 1.0 3.0 0.00 0.00 0.00 84 1011.3
20260902071217 76 191 1.0 4.0 0.00 0.00 0.00 84 1011.4
20260902070715 76 208 1.0 4.0 0.00 0.00 0.00 83 1011.4
20260902070424 76 215 0.0 2.0 0.00 0.00 0.00 83 1011.4